Change the Weather History Date:

Monday, December 30, 2013

  Actual Average (KMWA) Record (KMWA)
Temperature  
Mean Temperature 21 °F -  
Max Temperature 27 °F 41 °F 69 °F (1984)
Min Temperature 15 °F 25 °F -11 °F (1983)
Degree Days  
Heating Degree Days 44    
Moisture  
Dew Point 13 °F    
Average Humidity 69    
Maximum Humidity 86    
Minimum Humidity 44    
Precipitation  
Precipitation 0.00 in - - ()
Sea Level Pressure  
Sea Level Pressure 30.30 in    
Wind  
Wind Speed 6 mph (NNW)    
Max Wind Speed 10 mph    
Max Gust Speed -    
Visibility 10 miles    
Events      
Averages and records for this station are not official NWS values.
T = Trace of Precipitation, MM = Missing Value Source: NWS Daily Summary

Daily Weather History Graph

Daily Weather History Graph

Search for Another Location

Airport or City:

Trip Planner

Search our weather history database for the weather conditions in past years. The results will help you decide how hot, cold, wet, or windy it might be!

Date:

Astronomy

Dec. 30, 2013 Rise Set
Actual Time 7:09 AM CST 4:44 PM CST
Civil Twilight 6:40 AM CST 5:13 PM CST
Nautical Twilight 6:07 AM CST 5:46 PM CST
Astronomical Twilight 5:35 AM CST 6:18 PM CST
Moon 4:59 AM CST (12/30) 3:16 PM CST (12/30)
Length of Visible Light 10h 33m
Length of Day
9h 35m
Waning Crescent, 4% of the Moon is Illuminated
Dec 30
Waning Crescent
Jan 1
New
Jan 7
First Quarter
Jan 15
Full
Jan 23
Last Quarter

Hourly Weather History & Observations

Time (CST) Temp. Windchill Dew Point Humidity Pressure Visibility Wind Dir Wind Speed Gust Speed Precip Events Conditions
12:15 AM 23.7 °F 14.0 °F 18.7 °F 81% 30.25 in 10.0 mi NW 9.2 mph - N/A   Overcast
12:35 AM 23.5 °F 15.4 °F 18.3 °F 80% 30.25 in 10.0 mi NW 6.9 mph - N/A   Overcast
12:55 AM 23.0 °F 12.4 °F 18.0 °F 81% 30.25 in 10.0 mi NNW 10.4 mph - N/A   Overcast
1:15 AM 23.0 °F 15.8 °F 18.0 °F 81% 30.26 in 10.0 mi NNW 5.8 mph - N/A   Overcast
1:35 AM 22.8 °F 12.9 °F 18.0 °F 82% 30.26 in 10.0 mi WNW 9.2 mph - N/A   Overcast
1:55 AM 22.1 °F 11.3 °F 16.9 °F 80% 30.27 in 10.0 mi NNW 10.4 mph - N/A   Overcast
2:15 AM 22.1 °F 12.8 °F 16.7 °F 80% 30.28 in 10.0 mi NNW 8.1 mph - N/A   Overcast
2:35 AM 22.1 °F 15.9 °F 16.7 °F 80% 30.29 in 10.0 mi NNW 4.6 mph - N/A   Overcast
2:55 AM 21.2 °F 13.6 °F 15.3 °F 78% 30.29 in 10.0 mi North 5.8 mph - N/A   Overcast
3:15 AM 20.7 °F 11.9 °F 14.9 °F 78% 30.30 in 10.0 mi NNW 6.9 mph - N/A   Mostly Cloudy
3:35 AM 20.8 °F 9.7 °F 14.4 °F 76% 30.30 in 10.0 mi NNW 10.4 mph - N/A   Overcast
3:55 AM 19.9 °F 9.3 °F 12.2 °F 72% 30.30 in 10.0 mi NNW 9.2 mph - N/A   Overcast
4:15 AM 18.9 °F 8.8 °F 12.2 °F 75% 30.30 in 10.0 mi NNW 8.1 mph - N/A   Scattered Clouds
4:35 AM 18.3 °F 7.3 °F 12.0 °F 76% 30.31 in 10.0 mi NNW 9.2 mph - N/A   Clear
4:55 AM 17.6 °F 7.3 °F 12.0 °F 79% 30.32 in 10.0 mi NNW 8.1 mph - N/A   Clear
5:15 AM 17.4 °F 9.1 °F 11.8 °F 79% 30.32 in 10.0 mi NNW 5.8 mph - N/A   Clear
5:35 AM 16.7 °F 9.6 °F 12.0 °F 82% 30.32 in 10.0 mi North 4.6 mph - N/A   Clear
5:55 AM 16.7 °F 8.3 °F 12.2 °F 82% 30.32 in 10.0 mi North 5.8 mph - N/A   Clear
6:15 AM 16.3 °F 7.8 °F 11.8 °F 82% 30.33 in 10.0 mi North 5.8 mph - N/A   Clear
6:35 AM 15.8 °F 6.1 °F 11.3 °F 82% 30.33 in 10.0 mi NNW 6.9 mph - N/A   Clear
6:55 AM 15.8 °F 7.2 °F 11.1 °F 82% 30.33 in 10.0 mi NNW 5.8 mph - N/A   Clear
7:15 AM 15.6 °F 7.0 °F 11.3 °F 83% 30.33 in 10.0 mi NNW 5.8 mph - N/A   Clear
7:35 AM 15.3 °F 6.6 °F 11.3 °F 84% 30.34 in 10.0 mi NNW 5.8 mph - N/A   Clear
7:55 AM 16.2 °F 6.5 °F 11.1 °F 81% 30.35 in 10.0 mi North 6.9 mph - N/A   Clear
8:15 AM 16.7 °F 9.6 °F 11.3 °F 79% 30.35 in 10.0 mi North 4.6 mph - N/A   Clear
8:35 AM 16.9 °F 7.4 °F 11.3 °F 79% 30.35 in 10.0 mi North 6.9 mph - N/A   Clear
8:55 AM 17.6 °F 8.2 °F 11.5 °F 77% 30.36 in 10.0 mi NNW 6.9 mph - N/A   Clear
9:15 AM 17.6 °F 9.3 °F 10.2 °F 73% 30.36 in 10.0 mi NNW 5.8 mph - N/A   Clear
9:35 AM 18.3 °F 13.1 °F 9.5 °F 68% 30.36 in 10.0 mi North 3.5 mph - N/A   Clear
9:55 AM 19.2 °F 11.3 °F 8.8 °F 64% 30.37 in 10.0 mi North 5.8 mph - N/A   Clear
10:15 AM 19.9 °F 11.1 °F 7.7 °F 59% 30.36 in 10.0 mi NNE 6.9 mph - N/A   Clear
10:35 AM 20.1 °F 13.6 °F 8.4 °F 61% 30.36 in 10.0 mi North 4.6 mph - N/A   Clear
10:55 AM 21.2 °F 11.7 °F 9.0 °F 59% 30.35 in 10.0 mi North 8.1 mph - N/A   Clear
11:15 AM 21.6 °F 16.8 °F 7.9 °F 56% 30.34 in 10.0 mi NNW 3.5 mph - N/A   Clear
11:35 AM 21.9 °F 14.5 °F 7.9 °F 55% 30.33 in 10.0 mi NNE 5.8 mph - N/A   Clear
11:55 AM 23.2 °F - 8.6 °F 54% 30.32 in 10.0 mi Calm Calm - N/A   Clear
12:15 PM 22.8 °F - 8.4 °F 54% 30.31 in 10.0 mi Calm Calm - N/A   Clear
12:35 PM 23.4 °F - 7.7 °F 51% 30.30 in 10.0 mi Calm Calm - N/A   Clear
12:55 PM 25.0 °F - 8.4 °F 50% 30.30 in 10.0 mi Calm Calm - N/A   Clear
1:15 PM 25.0 °F - 8.6 °F 50% 30.29 in 10.0 mi Calm Calm - N/A   Clear
1:35 PM 25.5 °F 21.3 °F 9.0 °F 50% 30.29 in 10.0 mi West 3.5 mph - N/A   Clear
1:55 PM 26.4 °F - 9.1 °F 48% 30.28 in 10.0 mi Calm Calm - N/A   Clear
2:15 PM 26.6 °F - 8.6 °F 47% 30.28 in 10.0 mi Calm Calm - N/A   Clear
2:55 PM 26.1 °F - 8.4 °F 47% 30.27 in 10.0 mi Calm Calm - N/A   Clear
3:15 PM 26.2 °F - 7.9 °F 46% 30.27 in 10.0 mi Calm Calm - N/A   Clear
3:35 PM 26.6 °F 21.2 °F 8.6 °F 47% 30.28 in 10.0 mi West 4.6 mph - N/A   Clear
3:55 PM 27.1 °F - 7.7 °F 44% 30.27 in 10.0 mi Calm Calm - N/A   Clear
4:15 PM 26.6 °F - 9.0 °F 47% 30.27 in 10.0 mi Calm Calm - N/A   Scattered Clouds
4:35 PM 26.4 °F 22.4 °F 9.1 °F 48% 30.28 in 10.0 mi WSW 3.5 mph - N/A   Mostly Cloudy
4:55 PM 26.2 °F - 11.8 °F 55% 30.28 in 10.0 mi Calm Calm - N/A   Mostly Cloudy
5:15 PM 26.4 °F - 8.8 °F 47% 30.28 in 10.0 mi Calm Calm - N/A   Mostly Cloudy
5:35 PM 25.7 °F - 12.0 °F 56% 30.28 in 10.0 mi Calm Calm - N/A   Scattered Clouds
5:55 PM 25.3 °F - 13.1 °F 60% 30.28 in 10.0 mi Calm Calm - N/A   Clear
6:15 PM 25.3 °F - 13.1 °F 60% 30.28 in 10.0 mi Calm Calm - N/A   Clear
6:35 PM 24.3 °F - 14.0 °F 65% 30.29 in 10.0 mi Calm Calm - N/A   Clear
6:55 PM 23.5 °F - 14.0 °F 67% 30.29 in 10.0 mi Calm Calm - N/A   Clear
7:15 PM 23.9 °F - 18.1 °F 79% 30.29 in 10.0 mi Calm Calm - N/A   Scattered Clouds
7:35 PM 23.2 °F - 17.1 °F 77% 30.30 in 10.0 mi Calm Calm - N/A   Scattered Clouds
7:55 PM 22.5 °F - 16.9 °F 79% 30.30 in 10.0 mi Calm Calm - N/A   Clear
8:15 PM 22.5 °F - 17.2 °F 80% 30.29 in 10.0 mi Calm Calm - N/A   Clear
8:35 PM 19.4 °F - 15.6 °F 85% 30.30 in 10.0 mi Calm Calm - N/A   Mostly Cloudy
8:55 PM 21.6 °F - 18.0 °F 86% 30.30 in 10.0 mi Calm Calm - N/A   Overcast
9:15 PM 23.5 °F 15.4 °F 19.8 °F 85% 30.28 in 10.0 mi SE 6.9 mph - N/A   Overcast
9:35 PM 23.9 °F - 18.1 °F 79% 30.29 in 10.0 mi Calm Calm - N/A   Mostly Cloudy
9:55 PM 23.4 °F 17.4 °F 18.7 °F 82% 30.29 in 10.0 mi SSW 4.6 mph - N/A   Mostly Cloudy
10:15 PM 23.9 °F 18.0 °F 18.0 °F 78% 30.29 in 10.0 mi SSW 4.6 mph - N/A   Overcast
10:35 PM 23.5 °F 17.6 °F 17.2 °F 77% 30.29 in 10.0 mi South 4.6 mph - N/A   Mostly Cloudy
10:55 PM 23.4 °F 17.4 °F 15.4 °F 72% 30.29 in 10.0 mi South 4.6 mph - N/A   Mostly Cloudy
11:15 PM 23.9 °F 15.8 °F 15.8 °F 71% 30.29 in 10.0 mi SSW 6.9 mph - N/A   Overcast
11:35 PM 23.9 °F 18.0 °F 16.7 °F 74% 30.30 in 10.0 mi SW 4.6 mph - N/A   Overcast
11:55 PM 24.3 °F 17.3 °F 16.2 °F 71% 30.29 in 10.0 mi SW 5.8 mph - N/A   Overcast